Location: Columbia
(38.9520°N, 92.3340°W)
Time: 06:14:28
(UTC-06:00)

Cosmos 1603 - Visible Passes

Search period start: 04 December 2016 00:00
Search period end: 14 December 2016 00:00
Orbit: 832 x 858 km, 71.0° (Epoch: 03 December)

Date Brightness Start Highest point End Pass type
(mag) Time Alt. Az. Time Alt. Az. Time Alt. Az.
04 Dec 4.4 05:09:00 10° S 05:14:34 56° ESE 05:20:06 10° NNE visible
05 Dec 4.4 04:55:07 10° S 05:00:39 54° ESE 05:06:11 10° NNE visible
05 Dec 4.8 06:40:45 10° WSW 06:45:06 22° NW 06:49:27 10° N visible
06 Dec 4.4 04:41:14 10° S 04:46:45 52° ESE 04:52:14 10° NNE visible
06 Dec 4.8 06:26:46 10° WSW 06:31:10 23° NW 06:35:34 10° N visible
07 Dec 4.4 04:28:47 18° S 04:32:50 51° ESE 04:38:18 10° NNE visible
07 Dec 4.7 06:12:46 10° WSW 06:17:13 23° NW 06:21:42 10° N visible
08 Dec 4.5 04:18:59 49° ESE 04:18:59 49° ESE 04:24:22 10° NE visible
08 Dec 4.7 06:01:03 19° W 06:03:18 24° NW 06:07:50 10° N visible
09 Dec 5.2 04:07:19 31° NE 04:07:19 31° NE 04:10:26 10° NE visible
09 Dec 4.7 05:49:19 25° WNW 05:49:22 25° NW 05:53:57 10° N visible
10 Dec 5.9 03:55:01 18° NE 03:55:01 18° NE 03:56:30 10° NE visible
10 Dec 4.9 05:36:59 22° NNW 05:36:59 22° NNW 05:40:04 10° N visible
11 Dec 6.4 03:42:23 11° NE 03:42:23 11° NE 03:42:34 10° NE visible
11 Dec 5.3 05:24:19 18° NNW 05:24:19 18° NNW 05:26:11 10° N visible
12 Dec 5.7 05:11:26 14° N 05:11:26 14° N 05:12:19 10° N visible
13 Dec 6.0 04:58:24 10° N 04:58:24 10° N 04:58:25 10° N visible
